Weather History for Morgantown, WV

Change the Weather History Date:

Monday, January 24, 2000

  Actual Average Record
Temperature  
Mean Temperature 24 °F 31 °F  
Max Temperature 30 °F 39 °F 72 °F (1967)
Min Temperature 19 °F 24 °F -15 °F (1963)
Degree Days  
Heating Degree Days 40 34  
Month to date heating degree days 813  
Since 1 July heating degree days 2797  
Cooling Degree Days 0 0  
Month to date cooling degree days 0  
Year to date cooling degree days 0  
Moisture  
Dew Point 22 °F    
Average Humidity 84    
Maximum Humidity 100    
Minimum Humidity 67    
Precipitation  
Precipitation 0.00 in 0.09 in 0.86 in (1949)
Month to date precipitation 2.17  
Year to date precipitation 2.17  
Snow  
Snow 0.00 in - - ()
Snow Depth 2.00 in    
Sea Level Pressure  
Sea Level Pressure 30.10 in    
Wind  
Wind Speed 4 mph (North)    
Max Wind Speed 9 mph    
Max Gust Speed -    
Visibility 10 miles    
Events Snow    
T = Trace of Precipitation, MM = Missing Value Source: NWS Daily Summary

Daily Weather History Graph

Daily Weather History Graph

Search for Another Location

Airport:

Trip Planner

Search our weather history database for the weather conditions in past years. The results will help you decide how hot, cold, wet, or windy it might be!

Date:

Astronomy

Jan. 24, 2000 Rise Set
Actual Time 7:34 AM EST 5:29 PM EST
Civil Twilight 7:05 AM EST 5:58 PM EST
Nautical Twilight 6:32 AM EST 6:31 PM EST
Astronomical Twilight 6:00 AM EST 7:03 PM EST
Moon 9:40 PM EST (1/24) 9:58 AM EST (1/24)
Length of Visible Light 10h 53m
Length of Day
9h 55m
Waning Gibbous, 84% of the Moon is Illuminated
Jan 24
Waning Gibbous
Jan 28
Last Quarter
Feb 5
New
Feb 12
First Quarter
Feb 19
Full

Hourly Weather History & Observations

Time (EST) Temp. Windchill Dew Point Humidity Pressure Visibility Wind Dir Wind Speed Gust Speed Precip Events Conditions
12:53 AM 30.9 °F 26.2 °F 30.0 °F 96% 30.07 in 9.0 mi WNW 4.6 mph - 0.00 in Snow Light Snow
1:53 AM 30.0 °F 26.5 °F 28.9 °F 96% 30.08 in 9.0 mi WSW 3.5 mph - 0.00 in Snow Light Snow
2:53 AM 30.0 °F 24.1 °F 28.9 °F 96% 30.09 in 9.0 mi SW 5.8 mph - 0.00 in Snow Light Snow
3:53 AM 30.0 °F - 30.0 °F 100% 30.09 in 9.0 mi Calm Calm - 0.00 in Snow Light Snow
4:53 AM 28.9 °F 23.9 °F 28.9 °F 100% 30.10 in 10.0 mi NW 4.6 mph - 0.00 in   Overcast
5:42 AM 28.4 °F 24.6 °F 28.4 °F 100% 30.06 in 10.0 mi Variable 3.5 mph - N/A   Overcast
5:53 AM 28.9 °F 25.2 °F 27.0 °F 92% 30.11 in 10.0 mi NW 3.5 mph - N/A   Overcast
6:53 AM 28.0 °F 20.8 °F 28.0 °F 100% 30.10 in 10.0 mi NW 6.9 mph - N/A   Overcast
7:53 AM 28.9 °F 22.8 °F 28.0 °F 96% 30.12 in 10.0 mi Variable 5.8 mph - N/A   Overcast
8:46 AM 28.4 °F 23.3 °F 28.4 °F 100% 30.09 in 10.0 mi Variable 4.6 mph - N/A   Overcast
8:53 AM 28.0 °F 20.8 °F 27.0 °F 96% 30.13 in 10.0 mi North 6.9 mph - N/A   Overcast
9:53 AM 24.1 °F 14.4 °F 19.9 °F 84% 30.15 in 10.0 mi North 9.2 mph - N/A   Overcast
10:53 AM 24.1 °F 14.4 °F 19.9 °F 84% 30.17 in 10.0 mi NNE 9.2 mph - N/A   Overcast
11:09 AM 23.0 °F 15.8 °F 19.4 °F 86% 30.13 in 10.0 mi ENE 5.8 mph - N/A   Scattered Clouds
11:20 AM 24.8 °F 20.5 °F 19.4 °F 80% 30.13 in 10.0 mi ENE 3.5 mph - N/A   Mostly Cloudy
11:53 AM 26.1 °F 20.5 °F 19.9 °F 78% 30.15 in 10.0 mi North 4.6 mph - N/A   Overcast
12:53 PM 25.0 °F 19.3 °F 19.9 °F 81% 30.13 in 10.0 mi NE 4.6 mph - N/A   Overcast
1:43 PM 26.6 °F 22.6 °F 19.4 °F 74% 30.06 in 10.0 mi Variable 3.5 mph - N/A   Mostly Cloudy
1:53 PM 28.0 °F 22.8 °F 21.0 °F 75% 30.10 in 10.0 mi North 4.6 mph - N/A   Scattered Clouds
2:53 PM 28.0 °F - 19.0 °F 69% 30.10 in 9.0 mi Calm Calm - N/A   Mostly Cloudy
3:53 PM 28.9 °F 23.9 °F 19.0 °F 67% 30.09 in 10.0 mi North 4.6 mph - N/A   Mostly Cloudy
4:53 PM 27.0 °F - 18.0 °F 69% 30.09 in 9.0 mi Calm Calm - N/A   Mostly Cloudy
5:53 PM 25.0 °F 20.7 °F 16.0 °F 69% 30.09 in 10.0 mi North 3.5 mph - N/A   Scattered Clouds
6:53 PM 23.0 °F 17.0 °F 15.1 °F 72% 30.07 in 10.0 mi North 4.6 mph - N/A   Partly Cloudy
7:53 PM 21.0 °F - 14.0 °F 74% 30.07 in 10.0 mi Calm Calm - N/A   Clear
8:53 PM 21.0 °F - 12.9 °F 71% 30.08 in 10.0 mi Calm Calm - N/A   Partly Cloudy
9:53 PM 19.9 °F - 12.9 °F 74% 30.07 in 10.0 mi Calm Calm - N/A   Mostly Cloudy
10:53 PM 19.9 °F - 14.0 °F 78% 30.05 in 10.0 mi Calm Calm - N/A   Overcast
11:53 PM 19.9 °F 14.9 °F 15.1 °F 81% 30.01 in 10.0 mi North 3.5 mph - N/A   Mostly Cloudy